Location: Vinland
(47.7731°N, 122.6974°W)
Time: 21:31:26
(UTC+00:00)

S-56A Canister/Altair - Pass Details

Date: 04 April 2023
Orbit: 639 x 2492 km, 38.9° (Epoch: 01 June)

Event Time Altitude Azimuth Distance (km) Brightness Sun altitude
Rises 02:58:59 0° 261° (W) 4,544 13.0 -3.4°
Reaches altitude 10° 03:01:42 10° 256° (WSW) 3,788 12.3 -3.8°
Maximum altitude 03:11:44 56° 183° (S) 2,348 9.9 -5.4°
Drops below altitude 10° 03:25:28 10° 111° (ESE) 5,071 11.0 -7.7°
Enters shadow 03:26:05 - 110° (ESE) 5,230 11.1 -7.8°
